Regional Weather Roundup
Issued by NWS

Home | Current Version | Previous Version | Text Only | Print | Product List | Glossary Off
Versions: 1 2 3 4 5 6 7 8 9 10 11 12 13 14 15 16 17 18 19 20 21 22 23 24 25 26 27 28 29 30 31 32 33 34 35 36 37 38 39 40 41 42 43 44 45 46 47 48 49 50

000
ASUS43 KLOT 070021
RWRIL

ILLINOIS REGIONAL WEATHER ROUNDUP
NATIONAL WEATHER SERVICE CHICAGO/ROMEOVILLE IL
700 PM CDT MON JUL 06 2015

NOTE: "FAIR" INDICATES FEW OR NO CLOUDS BELOW 12,000 FEET WITH NO
SIGNIFICANT WEATHER AND/OR OBSTRUCTIONS TO VISIBILITY.

* THESE STATIONS ARE NOT UNDER NWS QUALITY CONTROL. THEY ALSO MAY NOT
  REPORT WEATHER SUCH AS PRECIPITATION OR FOG.

ILZ001-002-007-009-015-016-024-070100-
NORTHWEST ILLINOIS

CITY           SKY/WX    TMP DP  RH WIND       PRES   REMARKS
MOLINE         TSTM      71  69  93 SE3       29.88R FOG
6HR MIN TEMP:  71; 6HR MAX TEMP:  83; 6HR PCP:  0.91;

STERLING*      CLOUDY    73  70  88 W5        29.83R
SAVANNA*       PTSUNNY   77  71  81 SW5       29.83S
$$

ILZ003-004-008-010-011-017-018-070100-
NORTH CENTRAL ILLINOIS

CITY           SKY/WX    TMP DP  RH WIND       PRES   REMARKS
ROCKFORD       CLOUDY    80  70  71 S12       29.82F HX  83
6HR MIN TEMP:  72; 6HR MAX TEMP:  80; 6HR PCP:  0.06;

FREEPORT*      PTSUNNY   78  73  86 W3        29.84F HX  80
ROCHELLE*      RAIN      73  70  91 SW15G21   29.84F
DE KALB*       HVY RAIN  72  68  88 CALM      29.85F
PERU*          RAIN      75  69  79 W14       29.85R
$$

ILZ005-006-012>014-019>023-070100-
NORTHEAST ILLINOIS

CITY           SKY/WX    TMP DP  RH WIND       PRES   REMARKS
CHICAGO-OHARE  PTSUNNY   79  69  71 S10       29.84F HX  81
6HR MIN TEMP:  73; 6HR MAX TEMP:  85; 6HR PCP:  0.05;

CHICAGO-MIDWAY PTSUNNY   83  70  64 S13       29.84F HX  87
6HR MIN TEMP:  75; 6HR MAX TEMP:  88; 6HR PCP:  0.19;

AURORA         LGT RAIN  80  70  71 S9        29.83F HX  83
6HR MIN TEMP:  71; 6HR MAX TEMP:  85; 6HR PCP:  0.81;

LANSING*       PTSUNNY   76  66  70 S10       29.88S
JOLIET*        PTSUNNY   79  71  74 SE7       29.85F HX  82
WAUKEGAN       CLOUDY    76  71  85 CALM      29.82F
6HR MIN TEMP:  70; 6HR MAX TEMP:  85; 6HR PCP:  0.40;

DUPAGE AIRPORT PTSUNNY   79  70  74 S10       29.84F HX  82
6HR MIN TEMP:  71; 6HR MAX TEMP:  84; 6HR PCP:  0.24;

KANKAKEE*      PTSUNNY   76  72  87 SE3       29.89F
WHEELING       PTSUNNY   81  70  69 S15       29.85F HX  84
6HR MIN TEMP:  73; 6HR MAX TEMP:  87; 6HR PCP:  0.04;

MORRIS*        PTSUNNY   80  71  74 S10       29.83F HX  83
ROMEOVILLE*    PTSUNNY   78  67  69 S9        29.85F HX  80
NORTHERLY ISL    N/A     79  68  69 S9          N/A  HX  81
$$

LMZ740>746-070100-
SOUTHERN LAKE MICHIGAN

STATION/POSITION SKY/WX   TEMP    WIND        PRES    VSBY  WAVE
                          AIR SEA DIR/SP/G                  HT/PER
                          (F)     (DEG/KT/KT) (MB)    (MI)  (FT/S)
HARRISON CRIB              74     170/ 17/ 19   N/A
BURNHAM HARBOR             79     180/  7/  9   N/A
CALUMET HARBOR             80     160/  8/ 11   N/A
BURNS HARBOR               77     180/  6/ 14 1012.2F
MICHIGAN CITY              77     140/  9/ 13   N/A
MICHIGAN CITY 6N           72 68  180/  4/  6   N/A           1
ST. JOSEPH                 72 67  190/  8/ 10   N/A           1
$$

ILZ025>027-034>036-040-047-049-050-058-095>099-070100-
WEST-CENTRAL ILLINOIS

CITY           SKY/WX    TMP DP  RH WIND       PRES   REMARKS
QUINCY         CLOUDY    83  74  74 S10       29.83F HX  89
GALESBURG*     CLOUDY    81  74  78 S7        29.84R HX  86
MACOMB*        CLOUDY    82  74  78 S8        29.84S HX  88
JACKSONVILLE*  MOSUNNY   84  74  72 S10       29.85F HX  90
PITTSFIELD*    CLOUDY    83  74  74 S7        29.86F HX  89
$$

ILZ028>032-037-038-041>044-048-051>054-059>061-070100-
CENTRAL ILLINOIS

CITY           SKY/WX    TMP DP  RH WIND       PRES   REMARKS
PONTIAC        PTSUNNY   83  77  83 S10G16    29.86F HX  92
BLOOMINGTON    PTSUNNY   83  77  82 S13       29.89F HX  92
DECATUR        MOSUNNY   80  69  69 S12       29.91S HX  83
PEORIA         CLOUDY    86  73  65 S12       29.83F HX  93
6HR MIN TEMP:  86; 6HR MAX TEMP:  90;

LACON*         CLOUDY    82  74  76 S7        29.82F HX  88
LINCOLN*       PTSUNNY   83  72  69 S12G17    29.86S HX  88
SPRINGFIELD    MOSUNNY   84  71  65 S13       29.87S HX  89
6HR MIN TEMP:  84; 6HR MAX TEMP:  89;

TAYLORVILLE    MOSUNNY   79  72  78 S9G16     29.91R HX  82
$$

ILZ033-039-045-046-055>057-062-063-070100-
EAST-CENTRAL ILLINOIS

CITY           SKY/WX    TMP DP  RH WIND       PRES   REMARKS
CHAMPAIGN      LGT RAIN  78  71  79 S7        29.90F HX  80
DANVILLE*      CLOUDY    81  73  76 S8        29.89F HAZE    HX  86
RANTOUL*       PTSUNNY   84  75  73 S10       29.90S HX  92
MATTOON        PTSUNNY   75  69  81 S6        29.92F
PARIS*         PTSUNNY   83  74  76 S8        29.92F HX  89
$$

ILZ079-100>102-070100-
SOUTHWEST ILLINOIS

CITY           SKY/WX    TMP DP  RH WIND       PRES   REMARKS
ALTON          PTSUNNY   75 N/A N/A SE6       29.92R
BELLEVILLE     PTSUNNY   83  76  80 S9        29.90R HX  91
CAHOKIA*       PTSUNNY   81  74  79 SE7       29.90R HX  86
SPARTA*        PTSUNNY   82  74  76 S8        29.94R HX  89
$$

ILZ064>066-069>071-074>076-080>082-084>086-088>090-092>094-070100-
SOUTH-CENTRAL ILLINOIS

CITY           SKY/WX    TMP DP  RH WIND       PRES   REMARKS
CARBONDALE     MOSUNNY   83  74  74 S12       29.95R HX  89
6HR MIN TEMP:  82; 6HR MAX TEMP:  85;

CAIRO*         PTSUNNY   83  74  73 S10       29.95R HX  89
EFFINGHAM*     PTSUNNY   78  70  77 CALM      29.94S HX  80
MARION         PTSUNNY   82  75  78 S10       29.96S HX  89
MT. VERNON     PTSUNNY   82  72  69 S9        29.95R HX  87
CENTRALIA*     PTSUNNY   82  72  71 S8        29.94R HX  87
SALEM*         PTSUNNY   85  74  70 S8        29.93S HX  92
$$

ILZ067-068-072-073-078-083-087-091-070100-
SOUTHEAST ILLINOIS

CITY           SKY/WX    TMP DP  RH WIND       PRES   REMARKS
LAWRENCEVILLE  PTSUNNY   83  74  74 S9        29.94F HX  89
FLORA*         PTSUNNY   83  74  73 S9        29.94S HX  89
FAIRFIELD*     PTSUNNY   83  75  77 S6        29.93S HX  91
HARRISBURG*    PTSUNNY   84  75  74 S7        29.96S HX  92
ROBINSON*      PTSUNNY   83  73  71 S10       29.94F HX  89
CARMI*         PTSUNNY   83  70  63 S8        29.94S HX  87
$$

ABBREVIATIONS USED IN REMARKS
   TC - TEMPERATURE IN CELSIUS
  WCI - WIND CHILL INDEX
   HX - HEAT INDEX
  VSB - VISIBILITY
$$




USA.gov is the U.S. government's official web portal to all federal, state and local government web resources and services.